Torna al catalogo

KINEIS-1C

AttivoComunicazioniSSO
NORAD 60081·PAYLOAD·🇫🇷 France

Lanciato Jun 20, 2024 da Rocket Lab Launch Complex 1

Loading…

Prossimi Passaggi (prossime 24 ore)

TLE

AggiornatoSource: Space-Track

Epoca: Sep 14, 2026, 13:23 UTC

1 60081U 24114C   26257.55791637  .00000501  00000-0  71907-4 0  9996
2 60081  97.9827 281.1831 0000582 119.2085 240.9185 14.80743228120601

Traccia KINEIS-1C in tempo reale con AllMySat

Download on the App Store